Flag for Micronesia Weather past 2 weeks in Kolonia, Pohnpei, Micronesia

Now
77 °F

Sprinkles. Mostly cloudy.


Feels Like: 78 °F
Forecast: 76 / 86 °F
Wind: 3 mph from Southeast

Location: Pohnpei

Current Time: May 27, 2015 at 11:05:07 PM

Latest Report: May 27, 2015 at 9:50 PM


Visibility: 14 mi

Pressure: 29.91 "Hg

Humidity: 98%

Dew point: 76 °F

Location of KoloniaLocation

Historic Weather in Kolonia — Graph

°F

Kolonia temperature yesterday

Maximum temperature yesterday: 89 °F (at 1:55 PM)
Minimum temperature yesterday: 75 °F (at 4:54 AM)
Average temperature yesterday: 81 °F

Past Weeks' High & Low Weather Summary

 TemperatureHumidityPressure
High89 °F (May 15, 12:54 PM)99% (May 20, 4:52 AM)29.96 "Hg (May 20, 4:52 AM)
Low75 °F (May 27, 5:52 AM)67% (May 13, 10:52 AM)29.67 "Hg (May 13, 3:50 AM)
Average82 °F86%29.87 "Hg
* Reported May 12 9:51 PM — May 27 9:50 PM, Kolonia, Weather by CustomWeather, © 2015

Note: Actual official high and low records may vary slightly from our data, if they occured in-between our weather recording intervals... More about our weather records

Advertising

Kolonia weather history for previous 24 hours

 ConditionsComfort  
Time TempWeatherWind HumidityBarometerVisibility
9:50 PM
Wed, May 27
77 °FSprinkles. Mostly cloudy.3 mph98%29.91 "Hg14 mi
8:50 PM77 °FSprinkles. Mostly cloudy.3 mph98%29.90 "Hg15 mi
7:50 PM78 °FSprinkles. Mostly cloudy.3 mph95%29.88 "Hg15 mi
6:55 PM80 °FPassing clouds.3 mph93%29.85 "Hg15 mi
5:50 PM82 °FMostly cloudy.3 mph88%29.83 "Hg15 mi
4:55 PM82 °FMostly cloudy.3 mph86%29.82 "Hg15 mi
3:58 PM81 °FMostly cloudy.3 mph88%29.81 "Hg15 mi
2:57 PM80 °FMostly cloudy.2 mph91%29.83 "Hg15 mi
1:54 PM80 °FSprinkles. Mostly cloudy.3 mph90%29.85 "Hg12 mi
12:54 PM84 °FMostly cloudy.3 mph77%29.85 "Hg15 mi
11:54 AM81 °FMostly cloudy.5 mph82%29.87 "Hg15 mi
10:57 AM78 °FLots of rain. Mostly cloudy.6 mph91%29.88 "Hg12 mi
9:55 AM89 °FMore clouds than sun.6 mph72%29.88 "Hg15 mi
8:57 AM85 °FBroken clouds.5 mph76%29.88 "Hg15 mi
7:53 AM81 °FBroken clouds.3 mph89%29.88 "Hg15 mi
6:52 AM76 °FScattered clouds.3 mph97%29.84 "Hg15 mi
5:52 AM75 °FPartly cloudy.3 mph97%29.83 "Hg15 mi
4:52 AM75 °FMostly cloudy.3 mph99%29.82 "Hg15 mi
3:51 AM76 °FMostly cloudy.3 mph96%29.80 "Hg15 mi
2:51 AM76 °FMostly cloudy.3 mph96%29.79 "Hg15 mi
1:52 AM76 °FMostly cloudy.3 mph96%29.81 "Hg15 mi
12:50 AM76 °FMostly cloudy.3 mph96%29.85 "Hg15 mi
11:52 PM
Tue, May 26
77 °FMostly cloudy.3 mph95%29.88 "Hg15 mi
Weather by CustomWeather, © 2015

See weather overviewHow to use our weather pages